Weather Roundup
Issued by NWS Corpus Christi, TX

Home | Current Version | Previous Version | Text Only | Print | Product List | Glossary On
Versions: 1 2 3 4 5 6 7 8 9 10 11 12 13 14 15 16 17 18 19 20 21 22 23 24 25 26 27 28 29 30 31 32 33 34 35 36 37 38 39 40 41 42 43 44 45 46 47 48 49 50
000
ASUS44 KCRP 250810
HRRCRP

SOUTH TEXAS REGIONAL WEATHER ROUNDUP
NATIONAL WEATHER SERVICE CORPUS CHRISTI TX
300 AM CDT SUN JUN 25 2017


TXZ229>244-250900-
...CORPUS CHRISTI AREA OBSERVATIONS...

CITY           SKY/WX    TMP DP  RH WIND       PRES   REMARKS
CORPUS CHRISTI MOCLDY    80  72  76 NE7       30.03F
NAS CORPUS CHR CLOUDY    83  77  82 NE14      30.03S HX  92
ROCKPORT       MOCLDY    79  69  71 E8        30.05F
KINGSVILLE NAS CLEAR     77  77 100 N5        30.03F
ALICE          CLOUDY    75  74  96 NE7       30.04F
ORANGE GROVE   CLOUDY    76  76 100 NE7       30.06R
FALFURRIAS     CLEAR     78  76  94 CALM      30.03R
$$

...VICTORIA AREA OBSERVATIONS...

CITY           SKY/WX    TMP DP  RH WIND       PRES   REMARKS
VICTORIA       LGT RAIN  76  73  91 NE8       30.08R
BEEVILLE       FAIR     N/A N/A N/A NE3       30.07S
PLEASANTON     CLOUDY    73  71  91 NE5       30.10F
SAN ANTONIO    PTCLDY    73  68  84 CALM      30.12F
$$

...LAREDO AREA OBSERVATIONS...

CITY           SKY/WX    TMP DP  RH WIND       PRES   REMARKS
LAREDO         CLOUDY    78  73  84 NE12      30.04F
COTULLA        CLOUDY    76  70  82 NE10      30.07F
DEL RIO        PTCLDY    74  68  81 E6        30.11S
MCALLEN        CLOUDY    82  69  64 NE3       30.01F
HEBBRONVILLE   CLEAR     75  73  94 CALM      30.06S
$$

...OTHER TEXAS OBSERVATIONS...

CITY           SKY/WX    TMP DP  RH WIND       PRES   REMARKS
BROWNSVILLE    MOCLDY    78  76  93 W8        30.00S THUNDER
HOUSTON        CLOUDY    78  75  90 N5        30.09F
COL. STATION   CLOUDY    76  73  91 NE5       30.11S
AUSTIN         CLOUDY    76  72  87 N5        30.12F
WACO           CLOUDY    73  71  93 N5        30.14F
FORT WORTH     PTCLDY    73  64  73 NE3       30.17S
WICHITA FALLS  CLEAR     68  58  70 E10       30.21F
LUBBOCK        CLOUDY    68  62  81 SE20      30.27F
EL PASO        CLOUDY    75  59  57 E9        30.18F
$$

...MARINE OBSERVATIONS...

STATION/POSITION TIME  SKY/WX   TEMP    WIND        PRES    VSBY  WAVE   SWELL
                                AIR SEA DIR/SP/G                  HT/PER HT/PER
                 (UTC)          (F)     (DEG/KT/KT) (MB)    (MI)  (FT/S) (FT/S)
PORT ARANSAS     0800            78 86   60/ 18/ 19 1017.2F
BUOY 90 E PORT A 0650            83 83  100/  8/ 10 1017.8          4/ 7   3/ 7
BUOY 45 SE BAFFI 0650            84     140/  6/  8 1016.2          4/ 7   3/ 7
BUOY 200 E PT IS 0650            83 83  120/ 12/ 16 1017.1          4/ 7   3/ 7
BUOY 15 E GALVES 0650            83 85  150/  6/  8 1018.8          3/ 6   2/ 6
$$




USA.gov is the U.S. government's official web portal to all federal, state and local government web resources and services.